Location: Newark
(43.0000°N, 1.6781°W)
Time: 05:33:34
(UTC+00:00)

N. Korean satellite - Pass Details

Date: 04 December 2021
Orbit: 447 x 491 km, 97.3° (Epoch: 25 January)

Event Time Altitude Azimuth Distance (km) Brightness Sun altitude
Rises 04:50:04 0° 22° (NNE) 2,464 10.3 -26.9°
Reaches altitude 10° 04:52:18 10° 34° (NE) 1,583 9.5 -26.5°
Maximum altitude 04:55:18 29° 97° (E) 849 8.4 -26.0°
Drops below altitude 10° 04:58:16 10° 159° (SSE) 1,568 9.5 -25.4°
Sets 05:00:27 0° 171° (S) 2,436 10.3 -25.0°
